Theta_e
289 290 289 285 286 287 287 287 287 286 286 285 285 286 289 288 285 283 288 288 286 289 291 292 291 291 292 293 293 292 291 289 288 288 289 290 290 290 288 288 287 286 287 288 287 286 286 286 286 286 287 287 287 288 288 288 288 288 288 287 287 287 287 287 287 286 285 284 284 283 282 282 281 280 280 280 280 280 280 280 280 280 280 279 279 279 279
289 289 289 285 285 285 284 285 287 287 286 285 287 288 290 289 288 289 290 289 288 291 293 293 294 292 293 292 290 289 290 292 292 291 291 291 291 291 293 293 293 290 289 289 288 287 286 286 286 286 286 287 287 287 288 288 287 288 287 287 287 287 287 287 287 286 285 284 283 283 282 281 281 280 280 280 280 280 280 280 280 280 279 279 279 279 279
287 289 289 287 284 285 284 283 283 285 286 287 287 288 289 289 288 289 289 289 288 294 294 290 291 293 292 290 291 292 292 291 292 292 292 293 293 294 294 293 294 294 291 288 287 287 287 286 286 286 287 287 287 287 287 287 287 287 287 286 286 286 287 286 286 285 284 284 283 282 282 282 281 280 280 280 280 280 280 280 279 279 279 279 279 279 279
285 289 288 288 284 283 283 283 283 284 284 284 286 286 288 287 286 288 288 286 288 292 291 293 290 290 292 293 294 295 295 295 294 293 294 294 294 295 295 295 294 292 292 291 289 288 288 287 287 286 286 286 286 286 287 287 287 286 286 286 286 286 286 286 285 284 284 283 283 282 282 281 281 281 281 280 280 280 280 279 279 279 279 279 279 279 279
284 288 289 286 282 283 283 284 286 287 287 288 288 288 289 289 291 287 285 287 293 293 288 290 290 291 293 293 294 294 294 295 295 295 295 295 294 294 295 295 293 292 293 294 292 290 289 288 287 287 287 286 286 287 286 287 286 285 286 286 286 286 285 285 284 284 283 283 282 282 282 281 281 281 280 280 280 279 279 279 279 279 279 279 279 279 279
285 287 287 283 283 278 281 292 294 292 288 288 286 286 288 290 291 289 292 293 294 293 288 292 291 289 291 294 295 298 299 298 294 292 292 293 294 295 294 292 292 294 294 292 290 289 289 289 288 288 287 287 287 287 287 286 286 285 285 285 285 285 284 284 283 283 282 282 282 282 282 282 281 280 280 280 281 281 280 279 279 279 279 279 279 278 279
284 286 284 281 277 280 291 295 295 295 293 292 289 290 291 291 291 291 291 292 293 294 294 292 293 292 293 294 295 294 292 292 293 294 293 292 292 292 292 292 292 292 292 290 289 288 288 287 286 286 286 286 286 285 285 285 285 284 284 284 284 284 284 283 282 282 282 282 281 282 282 282 281 280 280 281 281 280 280 279 279 279 279 278 278 279 279
286 283 283 277 279 287 287 288 291 290 292 292 291 288 291 292 292 291 291 293 294 295 295 294 291 290 291 290 289 290 290 289 293 293 293 293 291 291 292 292 292 291 290 289 289 290 288 285 285 286 286 285 285 284 285 285 284 284 283 283 283 283 283 282 282 282 281 281 281 281 281 281 281 281 280 281 280 280 280 279 279 279 279 279 279 279 279
281 284 283 283 288 287 288 289 288 290 289 288 287 285 288 292 293 292 291 293 294 295 295 293 290 287 288 290 294 290 291 292 292 293 294 294 292 292 290 288 289 288 287 287 287 286 284 284 284 284 284 284 284 283 283 283 283 282 282 282 282 282 282 281 281 281 282 281 281 281 281 281 281 280 280 280 280 280 279 279 279 279 279 279 279 279 279
287 283 282 283 282 279 285 292 294 292 294 292 291 290 289 294 293 294 293 292 294 293 292 291 291 289 289 290 294 293 291 294 293 290 289 286 285 285 285 284 284 284 284 284 284 284 283 282 282 283 283 283 283 282 282 281 282 281 282 282 281 281 281 281 281 281 282 281 280 280 280 280 280 281 280 280 279 280 279 279 279 279 279 278 278 279 278
284 283 281 281 280 283 290 291 290 290 291 291 289 288 286 294 295 294 293 293 294 292 291 292 289 289 287 290 294 291 291 287 286 289 284 284 282 282 282 283 283 282 282 282 281 281 282 281 281 282 282 282 282 281 280 281 281 281 281 281 281 281 280 280 281 281 281 281 281 280 280 280 280 280 280 280 279 279 280 280 279 279 278 278 278 278 278
285 284 282 280 285 285 289 289 286 288 290 292 290 281 283 295 296 292 292 292 293 293 293 292 289 290 289 291 295 289 288 286 283 284 284 283 282 282 281 281 281 281 281 281 281 281 281 280 281 281 282 282 281 280 280 280 280 280 280 281 281 281 280 280 280 280 281 281 280 280 280 281 281 281 280 279 278 279 279 279 279 278 278 278 278 278 278
285 285 283 286 285 288 290 289 284 286 292 292 285 280 290 292 291 291 293 292 294 294 293 291 289 292 295 293 287 283 282 282 282 281 281 282 281 281 281 282 282 280 280 281 281 280 280 280 281 281 281 281 280 279 279 280 279 280 280 280 280 280 280 279 279 280 280 281 280 281 281 281 281 280 280 279 279 279 278 278 278 278 278 278 278 277 277
283 285 283 283 287 289 291 286 287 290 290 283 284 292 287 287 286 290 292 292 293 294 293 293 292 295 291 281 282 282 282 284 283 281 281 280 280 280 281 281 280 280 279 279 279 279 279 280 280 281 281 280 279 279 279 279 279 279 279 280 279 279 279 279 279 279 279 279 280 280 280 280 279 279 280 279 279 279 279 278 278 277 277 277 277 277 276
287 285 283 282 279 288 295 290 286 288 289 290 294 286 283 283 288 289 290 292 293 293 292 292 293 287 281 283 283 283 281 281 281 281 281 281 281 281 281 280 280 280 279 279 278 278 278 279 280 280 279 278 278 278 279 278 279 279 279 279 279 278 278 278 278 278 279 279 279 280 280 280 280 279 279 279 279 279 278 278 278 277 277 276 276 276 275
283 283 281 282 289 294 293 294 289 290 294 292 289 290 290 282 282 288 290 290 292 292 293 292 289 285 282 280 280 280 279 279 279 280 280 280 280 279 279 280 279 279 279 278 278 278 278 278 278 279 279 278 277 277 277 278 278 279 279 278 278 278 278 278 278 278 279 279 280 281 281 281 280 279 279 279 279 278 278 278 277 277 276 275 275 275 274
287 286 289 291 287 290 293 296 296 295 296 285 286 288 292 289 285 284 286 291 289 286 289 287 287 282 283 283 281 282 280 280 279 279 280 280 280 280 280 279 278 278 279 278 278 277 277 277 276 277 277 279 277 277 277 278 278 278 278 278 278 278 277 277 278 278 279 280 280 281 281 281 280 279 278 278 277 277 277 277 277 276 276 275 275 274 274
290 291 285 285 283 284 287 288 282 282 285 284 283 286 288 286 286 285 288 288 286 283 284 287 282 286 283 281 280 279 279 279 278 278 277 277 277 277 277 277 278 278 278 278 278 277 276 276 277 277 277 279 278 277 277 277 278 278 278 278 278 277 277 277 277 278 278 278 279 280 281 281 280 280 278 278 277 276 277 276 276 276 275 274 274 273 273
286 284 289 289 286 284 284 286 285 282 281 281 281 282 283 284 283 284 282 283 284 284 284 287 287 283 281 282 280 280 279 279 278 278 278 278 278 278 278 278 278 278 279 278 277 277 275 274 275 275 275 275 276 277 277 278 278 278 278 277 277 276 276 276 276 277 277 278 278 278 278 278 278 278 278 278 277 276 276 276 275 275 274 274 273 273 273
283 284 285 284 284 284 285 283 283 283 283 283 281 280 279 280 281 281 281 281 281 282 283 284 284 282 283 283 282 281 280 280 279 279 278 278 278 277 278 278 279 279 279 278 276 275 274 272 272 272 272 272 272 275 276 278 278 278 278 277 277 276 275 276 277 277 277 274 276 277 277 277 277 276 277 277 276 275 275 275 274 274 274 273 273 272 272
286 288 288 285 283 285 285 283 283 283 283 283 283 281 281 281 281 281 281 280 280 282 283 282 283 282 283 284 283 282 281 280 279 279 279 279 278 278 278 279 279 280 278 277 275 274 272 271 270 270 268 267 267 272 275 276 278 278 277 275 275 274 274 275 274 274 275 275 275 274 272 271 271 273 275 275 275 271 268 271 274 274 273 272 271 270 271
283 284 286 285 285 284 286 285 286 286 285 284 283 282 282 283 283 283 283 281 281 280 280 282 284 284 282 282 282 282 281 281 280 279 279 279 279 279 279 279 279 277 277 275 274 272 271 270 270 269 267 266 265 266 268 275 276 276 274 273 273 272 272 272 271 272 272 272 272 272 271 271 272 272 273 275 272 271 269 275 278 277 276 269 269 269 269
283 288 288 288 290 289 290 290 287 288 287 286 285 284 285 284 284 284 284 283 283 283 281 282 283 283 282 282 283 282 281 281 281 280 280 279 279 279 279 278 277 276 275 274 272 271 269 269 268 268 267 266 265 265 267 272 275 274 273 273 271 270 271 271 271 270 270 269 269 269 269 270 271 271 272 275 278 278 277 278 278 279 278 278 277 274 271
290 291 290 288 289 289 291 287 286 286 286 287 287 287 286 285 285 284 284 285 286 284 281 281 282 283 282 282 282 281 280 280 280 279 279 279 279 279 279 278 276 275 273 272 270 269 269 268 267 266 265 263 263 263 265 269 273 273 273 273 272 270 270 269 269 269 269 268 268 268 268 269 270 271 272 272 274 278 279 279 279 279 279 278 278 277 277
289 290 286 287 288 290 285 282 282 284 285 286 288 288 286 284 284 284 284 284 284 284 281 281 280 281 282 282 282 281 280 279 279 279 278 278 278 279 278 277 276 275 274 272 269 268 268 267 266 266 265 263 261 262 264 267 271 272 272 272 270 269 268 268 267 267 267 268 268 268 267 267 268 269 270 271 270 271 275 279 279 279 279 279 279 278 278
291 285 282 282 281 282 281 284 285 284 284 285 285 285 284 283 283 282 282 281 282 282 282 281 279 280 282 281 280 279 279 278 278 278 277 277 277 277 277 277 276 273 271 269 268 267 267 266 266 266 265 261 261 260 261 266 269 271 270 270 270 269 268 268 267 267 267 267 267 268 268 268 268 268 268 269 270 271 270 269 270 273 276 278 278 278 278
283 284 285 287 285 285 281 286 287 285 284 284 285 284 282 282 281 280 278 278 278 280 280 280 280 280 280 279 278 278 278 277 277 277 277 277 277 277 276 274 271 270 268 267 266 266 265 265 265 265 263 260 259 258 262 266 268 268 268 267 267 266 265 266 268 267 266 266 266 265 265 266 266 265 265 265 268 269 269 268 267 266 264 266 272 275 273
283 284 286 288 287 287 285 286 285 283 282 283 281 280 279 278 278 278 278 279 278 277 278 279 279 278 277 277 278 277 277 277 276 276 275 274 272 271 271 271 270 268 267 266 265 264 264 264 264 263 261 259 259 258 262 265 267 266 266 266 266 266 264 264 264 264 264 263 264 264 264 263 262 263 262 264 265 263 263 263 263 261 260 261 262 268 271
283 284 279 279 281 280 280 279 279 280 280 279 279 278 278 279 279 279 279 278 277 277 277 277 277 278 278 278 278 277 277 276 274 273 271 270 269 269 269 269 268 267 265 264 263 263 263 264 264 263 261 259 257 258 260 264 266 266 265 265 265 264 264 262 262 262 261 261 261 262 263 261 261 261 261 261 260 260 260 260 259 257 258 256 258 260 263
283 283 279 278 279 279 281 281 281 282 281 279 279 278 280 281 280 279 278 277 277 277 277 277 278 277 278 277 278 278 277 276 273 270 268 268 267 267 266 266 265 265 264 263 262 262 263 263 263 262 259 257 258 258 259 262 263 263 262 263 262 263 262 260 261 260 261 261 262 262 261 261 261 260 259 259 259 259 259 258 258 257 257 256 259 256 258
279 277 277 277 279 279 281 281 280 282 281 279 280 279 278 280 281 279 277 277 277 277 276 277 277 276 277 276 273 272 271 269 268 267 266 265 265 265 266 268 271 270 268 263 260 259 261 260 260 259 256 255 256 256 259 260 261 261 261 261 261 262 263 263 264 262 261 261 260 260 259 259 259 259 259 258 258 258 257 257 255 254 254 252 254 254 254
277 276 276 275 273 277 277 277 279 279 280 279 279 279 279 280 280 279 277 276 277 277 276 276 276 276 273 269 269 268 267 265 265 264 263 263 262 261 260 259 263 263 261 259 258 257 258 259 258 254 253 254 255 256 258 260 261 262 262 261 262 262 264 264 262 262 260 259 259 259 258 258 257 257 258 258 257 256 255 256 254 254 253 255 254 253 253
278 277 276 275 275 276 276 277 278 279 278 278 281 283 281 280 280 280 278 278 276 275 275 276 274 270 268 268 266 266 264 263 263 263 261 260 259 259 258 259 259 259 257 257 256 257 258 258 255 254 254 254 256 256 257 259 260 261 261 262 261 261 261 262 261 260 258 258 257 257 256 257 256 256 256 255 254 254 254 254 254 253 253 252 252 251 253
274 277 276 278 280 282 282 281 278 278 276 275 276 277 279 277 278 277 275 274 274 274 275 273 269 268 267 267 266 264 265 265 264 263 261 259 258 258 258 258 257 256 256 257 257 256 256 255 255 255 255 255 255 256 257 258 259 259 259 259 260 259 259 259 258 258 257 256 255 256 256 255 255 255 255 254 253 253 254 253 253 252 252 250 251 249 256
260 264 266 265 263 263 267 276 279 277 276 275 272 271 273 274 274 275 274 274 274 274 271 268 267 267 267 266 265 266 268 270 267 262 260 258 257 257 257 258 258 257 257 256 256 255 255 255 255 254 255 255 255 255 256 257 257 258 255 257 257 257 256 256 256 256 256 254 254 255 254 254 253 254 253 253 253 253 253 252 252 251 251 250 250 249 252
257 258 259 259 259 259 261 264 270 274 275 276 274 272 270 269 269 271 272 271 268 268 268 267 266 267 266 266 267 269 270 267 262 260 258 257 257 258 259 259 259 258 257 257 256 255 256 256 257 257 256 256 256 255 256 256 255 255 256 256 256 256 255 255 254 254 253 254 254 253 253 253 253 252 252 251 251 251 251 251 250 250 249 248 248 249 248
257 256 256 256 257 258 258 259 257 261 270 270 268 268 267 265 265 263 264 264 265 266 265 265 265 266 267 266 264 263 262 262 260 258 258 258 259 259 260 259 260 259 260 258 255 255 254 256 256 257 256 256 255 255 255 255 255 255 255 255 255 255 255 254 253 253 252 251 253 253 253 252 251 250 250 249 250 249 249 249 249 248 247 247 248 248 249
257 257 256 256 256 256 257 256 257 259 262 261 259 261 262 262 262 262 262 262 262 263 264 264 265 264 262 261 260 259 258 258 258 257 257 258 259 259 259 260 259 259 258 254 253 253 254 256 256 256 256 256 255 255 256 255 255 254 254 254 254 254 254 253 253 252 251 251 251 251 251 251 251 248 247 247 248 248 248 248 248 247 247 247 246 247 246
258 258 257 256 255 256 255 255 256 255 256 258 258 259 259 260 260 261 260 259 260 262 262 260 261 262 261 259 256 256 255 255 255 256 256 256 256 255 251 249 248 249 250 252 254 252 255 254 253 254 254 254 254 254 255 254 254 252 253 253 252 253 253 253 252 251 250 250 249 248 248 248 248 248 246 245 246 248 249 248 248 248 246 245 245 246 246
257 257 257 256 255 255 255 255 255 255 256 257 258 258 258 259 259 259 259 258 257 258 260 261 262 260 258 256 254 253 252 251 251 252 251 251 251 251 251 251 250 251 254 254 254 252 254 254 252 252 253 253 254 253 254 254 253 252 252 252 252 251 251 251 251 251 249 250 251 250 248 248 247 247 247 247 247 247 246 247 247 247 247 245 244 244 245
256 257 257 256 255 255 254 255 255 255 255 255 256 257 258 258 258 259 258 257 257 257 258 260 259 257 255 254 252 251 251 251 251 251 252 254 255 256 256 252 249 248 250 249 249 251 253 252 252 252 253 253 253 253 250 252 251 250 251 251 251 251 251 250 250 250 250 250 249 249 248 247 248 247 248 247 246 246 246 246 246 246 246 246 246 244 244
255 256 256 255 255 255 254 254 254 254 254 255 255 256 256 256 257 256 256 256 256 256 255 255 255 254 252 251 251 251 250 249 248 248 249 252 253 256 254 251 249 248 253 253 252 252 251 250 252 254 253 253 253 253 252 252 250 250 250 249 250 250 250 249 249 247 247 247 246 246 246 246 247 246 247 247 246 246 245 245 245 245 245 245 246 247 246
255 255 255 255 255 254 254 254 253 253 253 254 254 255 255 255 256 255 255 254 254 253 253 252 252 252 252 252 253 252 250 250 250 250 249 248 246 247 251 253 248 248 252 250 249 250 250 250 253 253 254 254 253 253 253 252 252 252 249 250 249 249 248 248 247 246 246 246 245 244 245 245 245 246 246 246 247 246 246 246 247 248 247 246 246 245 245
254 254 254 254 254 254 254 254 253 253 252 253 254 255 255 255 255 255 254 254 254 254 253 253 253 253 253 253 253 253 252 251 252 251 252 252 252 252 252 251 249 251 252 250 249 250 249 249 250 254 253 253 253 253 252 252 252 252 251 249 249 248 249 248 247 247 246 247 246 246 246 247 245 245 245 247 246 245 245 246 246 246 247 246 245 247 246
254 254 254 253 254 253 253 253 252 251 252 253 253 253 253 253 253 254 254 254 254 254 254 254 254 254 254 254 252 251 250 249 248 250 256 254 254 252 251 251 250 250 251 251 250 249 248 249 254 254 254 254 254 253 253 252 252 252 251 251 250 248 248 249 248 247 247 246 246 246 246 246 247 246 246 247 248 248 247 247 248 247 247 246 248 247 248
254 254 254 254 254 254 254 254 254 254 254 253 252 252 252 252 252 252 252 252 252 252 253 253 252 252 251 250 250 250 250 250 248 245 247 249 252 252 250 250 250 252 252 251 249 249 249 254 254 254 254 254 254 253 253 253 253 252 252 252 250 249 248 248 248 247 247 246 247 246 246 247 245 246 246 247 248 248 249 249 248 247 248 248 248 248 249
254 254 254 254 254 254 255 255 255 254 253 252 251 250 251 251 251 251 251 251 251 251 251 251 251 251 252 252 254 254 253 252 252 252 252 253 252 252 252 253 253 253 252 250 250 249 250 252 254 254 254 254 252 251 252 252 252 252 251 247 247 248 248 247 246 246 246 247 248 248 249 247 247 247 247 248 248 249 248 248 249 249 249 249 249 249 250
254 254 254 254 254 254 254 254 253 252 251 251 251 252 252 253 253 253 253 252 252 252 252 252 252 252 252 252 251 250 253 257 255 254 253 251 252 252 252 250 252 253 253 253 253 253 254 254 255 255 255 254 253 252 252 252 252 252 251 248 246 246 246 247 246 246 246 247 248 246 247 247 249 248 248 247 248 249 248 248 249 249 250 249 249 249 249
253 253 253 254 254 254 254 253 253 253 253 254 254 254 254 254 254 253 253 253 253 253 253 253 253 253 253 253 253 254 253 252 255 254 254 254 255 254 254 254 253 253 253 252 250 251 254 255 255 255 254 254 253 251 250 249 250 249 248 247 247 248 247 247 247 246 246 246 247 248 248 249 248 247 248 248 249 248 249 249 249 249 249 249 249 249 249
253 253 252 252 252 252 253 253 253 253 254 254 254 254 255 255 254 253 254 253 253 253 253 253 253 253 253 254 254 254 254 254 254 254 254 254 255 255 255 255 254 254 253 253 251 253 253 254 254 254 254 254 253 252 252 251 250 250 249 250 250 248 248 249 250 250 248 248 248 248 249 249 249 249 249 248 249 249 249 249 249 250 250 250 250 250 250
252 252 252 252 252 252 253 253 253 254 254 254 254 254 254 253 252 253 254 255 255 254 253 252 253 253 253 254 254 254 255 255 255 255 255 255 255 255 255 255 255 255 255 255 254 254 254 254 253 253 254 254 253 253 252 251 251 250 251 251 250 250 249 250 249 249 248 249 248 248 249 248 248 248 248 249 249 249 249 249 249 249 249 249 249 250 250
253 253 252 252 252 252 252 253 253 253 253 254 254 254 254 253 253 252 252 253 253 253 253 253 251 252 252 252 252 253 254 254 255 255 255 255 255 255 255 254 255 254 253 254 254 253 253 252 252 252 253 253 252 251 252 252 252 251 251 251 251 250 250 249 249 248 248 249 249 249 249 249 248 249 249 249 249 249 249 249 249 249 249 249 249 249 249
Wind_Speed
16 15 14 6 7 11 14 19 18 16 16 14 17 19 21 16 15 22 20 16 18 24 22 16 13 9 10 11 13 11 6 4 2 4 7 10 9 7 6 10 11 11 8 8 7 8 9 8 11 11 10 10 9 8 8 9 9 11 9 10 11 11 11 12 12 10 9 9 9 9 10 10 10 10 10 9 8 7 9 9 9 11 11 11 11 10 9
15 16 17 6 11 7 5 9 15 17 18 20 22 23 25 27 22 17 18 20 23 21 20 14 13 10 11 8 2 1 2 6 6 7 9 9 9 8 9 9 7 7 9 6 5 6 8 11 12 11 10 11 11 11 10 9 10 10 10 11 11 11 12 12 10 9 10 9 10 10 10 10 10 10 10 9 9 9 10 9 9 9 10 10 10 11 11
9 14 14 10 8 8 9 4 3 6 12 19 24 24 25 22 20 15 18 23 24 22 11 6 6 9 7 3 5 7 8 7 8 9 9 9 10 10 9 9 10 9 5 4 4 7 11 11 13 12 11 10 9 10 10 10 11 10 11 12 12 13 13 10 9 9 10 10 10 11 11 10 8 10 10 9 9 8 9 8 8 7 8 9 9 9 10
11 14 14 14 0 2 5 5 5 10 14 17 18 18 12 12 16 20 18 18 22 13 10 9 6 6 9 12 14 12 10 11 11 12 13 12 11 11 11 11 10 7 7 6 8 11 12 11 11 11 11 9 9 12 11 11 10 10 12 12 13 12 11 9 10 10 10 10 10 10 10 10 9 9 8 9 9 8 8 8 8 8 9 10 9 8 7
12 15 13 7 2 0 6 11 18 22 20 16 8 10 12 17 19 16 14 22 23 13 5 6 9 11 14 14 11 10 12 13 14 15 14 12 11 11 13 12 8 7 9 10 10 10 8 9 10 11 9 9 12 11 11 11 9 11 12 12 11 11 9 9 10 9 9 10 10 9 8 9 8 9 10 10 10 10 12 10 9 10 11 11 10 9 8
9 16 10 1 4 14 16 17 24 19 19 15 12 15 21 23 15 14 18 19 17 10 7 14 13 11 11 13 13 15 16 15 13 11 10 10 11 12 10 6 8 10 10 8 7 8 9 8 9 8 10 12 10 8 9 8 11 10 11 10 10 10 9 9 9 9 10 9 8 8 8 9 9 10 11 12 11 9 8 8 9 9 8 9 9 10 10
9 7 4 5 16 17 18 14 9 11 11 13 21 26 24 20 16 14 16 18 21 25 16 10 9 10 12 11 14 12 9 7 8 10 10 10 12 12 8 9 11 11 9 6 7 7 8 8 6 6 7 8 6 7 9 10 9 10 9 10 9 9 9 9 9 8 9 10 9 8 9 9 9 9 9 8 8 7 8 9 9 10 10 10 9 9 8
2 3 8 10 14 6 5 4 9 6 9 18 16 17 21 21 19 18 21 26 29 27 19 12 6 7 9 7 8 11 9 8 10 11 11 10 9 9 10 12 10 8 7 8 8 8 3 3 4 6 7 6 8 7 7 9 8 8 9 9 9 8 9 8 9 9 10 9 9 8 9 8 8 8 8 8 9 7 6 5 3 3 3 4 6 7 6
9 8 13 17 4 9 8 8 8 14 12 9 12 15 20 21 17 16 21 26 27 26 19 9 6 4 2 7 16 9 11 14 14 13 12 9 9 9 7 6 8 6 5 5 6 3 1 3 4 5 5 6 7 7 8 7 8 8 9 9 9 9 9 9 9 10 10 10 9 9 8 9 9 9 9 8 7 6 7 6 6 6 6 5 5 6 7
11 11 11 7 8 12 16 22 14 5 9 6 7 9 16 16 13 21 23 26 28 23 11 8 9 3 3 13 21 9 14 16 12 7 6 3 4 4 4 4 5 5 5 5 4 3 3 3 3 5 7 8 8 8 8 7 8 8 9 9 8 9 9 8 9 9 9 9 10 9 9 10 10 8 7 6 7 7 9 9 9 8 7 7 6 6 7
8 11 10 10 10 12 13 20 8 6 7 11 7 6 15 18 21 19 19 22 22 13 10 17 7 6 9 17 20 5 11 6 5 7 5 3 3 3 5 5 5 3 2 1 3 5 6 6 5 6 8 9 9 8 8 8 8 9 8 8 8 9 8 8 9 9 8 9 9 10 10 9 8 9 9 8 7 6 6 5 5 5 5 6 5 5 5
10 10 11 12 6 10 11 9 2 8 9 12 11 10 11 25 17 9 15 17 15 17 17 12 9 13 15 16 17 6 9 8 6 8 8 5 3 3 2 2 3 2 2 5 4 5 6 6 6 8 8 9 8 8 7 7 7 8 8 8 7 7 8 9 9 8 8 9 9 9 9 8 8 8 7 7 8 7 6 6 6 5 5 5 6 5 5
16 17 12 6 7 3 8 7 4 6 13 14 12 14 20 3 4 11 14 17 19 18 16 11 11 15 19 13 2 9 7 7 3 1 2 3 3 3 2 3 3 4 3 4 5 5 5 6 6 6 8 8 7 7 8 8 8 7 7 7 8 8 8 8 8 8 8 9 10 8 9 9 8 8 7 8 8 8 8 6 6 6 6 5 5 5 4
16 14 16 15 8 7 8 2 12 10 7 9 15 12 1 4 1 8 16 16 18 17 17 14 13 16 8 5 6 5 7 7 6 5 4 4 3 2 2 3 4 6 6 7 7 6 4 6 6 6 7 8 7 7 6 6 5 6 7 8 8 7 8 8 7 7 7 6 7 8 8 9 9 7 6 7 8 8 6 7 8 7 6 5 5 4 3
11 10 12 11 16 4 14 8 4 4 11 14 12 3 3 2 7 9 8 13 14 15 13 13 16 7 4 7 7 6 5 5 6 6 6 6 7 6 5 4 2 6 7 7 7 6 4 4 5 4 7 8 6 6 6 5 6 7 7 8 7 7 8 8 8 8 8 9 8 8 8 8 10 9 7 8 7 7 8 7 7 7 6 5 5 4 3
10 13 13 11 11 13 8 16 14 11 20 7 6 7 6 3 4 7 8 9 12 11 14 14 9 7 6 2 3 4 2 2 3 3 3 3 4 4 2 4 4 5 8 7 7 5 4 4 4 4 8 8 5 5 4 3 6 6 7 7 7 7 7 7 7 6 7 8 8 8 9 9 9 10 8 8 7 7 7 7 6 6 5 5 4 5 5
13 11 13 8 1 4 10 16 13 11 16 2 4 4 6 7 7 5 4 11 9 6 8 6 8 5 6 7 7 7 7 5 5 6 5 5 6 6 7 6 4 5 9 9 8 6 5 5 4 4 5 9 6 6 3 4 5 7 7 7 8 7 7 7 7 7 7 6 7 7 8 9 9 8 8 8 7 5 6 5 6 6 5 5 5 5 4
5 7 1 5 5 4 6 5 5 4 4 4 3 1 2 5 5 9 9 7 7 5 5 10 4 8 8 8 7 3 5 6 4 4 4 4 4 5 6 6 6 8 9 8 8 9 6 5 5 4 4 7 9 5 5 5 5 7 8 8 8 8 7 7 7 8 8 7 7 7 7 5 6 6 8 7 6 5 5 5 5 5 5 5 5 5 5
4 8 5 13 7 5 2 6 5 2 1 2 2 4 3 6 2 5 3 3 7 8 7 8 10 7 8 9 7 6 7 7 7 7 7 6 6 8 8 7 9 10 10 10 9 8 7 3 5 5 6 5 6 6 7 7 8 8 8 9 8 8 8 8 7 8 8 7 6 6 5 5 5 5 5 5 6 6 5 6 5 5 5 6 5 4 4
4 6 9 10 5 6 5 2 2 4 7 6 3 2 4 4 3 1 2 1 4 5 6 5 8 9 8 11 10 9 8 9 8 8 8 8 7 5 6 7 7 9 10 11 10 9 8 5 5 6 6 6 4 5 6 7 8 9 9 9 9 8 8 7 7 7 7 9 9 6 5 6 5 5 4 5 6 7 7 7 7 6 5 5 6 6 5
7 10 13 11 10 7 3 5 5 4 3 3 4 4 5 5 4 2 1 1 2 4 4 5 7 9 7 7 10 11 8 8 7 8 8 7 8 9 10 7 7 9 10 10 9 10 8 4 6 6 6 4 4 5 6 7 8 10 9 8 8 8 7 7 7 6 7 7 7 7 6 6 5 3 5 5 5 3 1 1 5 7 6 5 4 4 5
10 10 8 2 6 8 4 4 7 7 9 6 4 1 0 1 2 3 3 5 5 4 2 2 4 7 8 6 7 8 8 8 8 8 8 8 9 8 6 7 7 8 7 10 11 10 7 5 6 7 6 4 3 2 2 6 8 11 10 9 9 7 7 7 7 7 7 7 7 7 8 7 8 7 7 8 5 6 2 4 7 6 7 4 6 6 5
10 7 7 7 7 8 9 8 6 8 8 8 6 6 5 3 3 2 2 3 3 3 4 2 2 5 7 8 5 6 6 6 6 7 8 10 9 9 9 10 9 9 8 8 10 10 8 6 6 6 6 4 3 2 2 4 8 10 10 9 7 7 7 7 7 8 7 7 7 7 7 8 7 9 8 8 10 9 8 8 8 10 9 9 10 8 6
11 11 9 6 5 8 9 5 5 5 5 8 9 7 6 7 7 5 4 4 7 5 2 2 1 4 6 7 8 8 7 7 8 7 6 6 7 8 8 9 11 11 10 9 11 11 8 7 7 6 6 4 2 2 1 4 7 9 9 11 9 7 7 6 8 7 7 8 8 8 7 7 8 8 9 11 7 10 11 11 11 11 11 11 11 10 10
12 8 4 6 7 8 4 4 4 3 4 7 8 10 9 7 5 5 5 3 2 5 7 5 2 2 6 7 6 8 8 8 7 8 8 8 8 8 8 9 10 11 10 9 9 9 9 8 7 6 7 3 2 2 2 3 6 9 7 8 10 8 7 7 7 8 8 8 8 8 9 9 7 8 9 10 12 9 7 11 12 10 10 10 10 9 10
11 4 1 1 1 3 3 4 6 4 5 7 5 1 1 4 4 4 3 3 4 5 6 6 6 3 5 8 7 7 7 8 8 8 9 9 8 7 9 10 8 8 10 9 8 9 8 8 7 7 7 4 3 2 1 3 5 7 7 7 9 10 9 9 9 7 7 8 8 7 7 7 8 8 7 8 9 13 13 8 8 11 13 13 13 14 14
1 2 4 0 3 5 3 6 6 2 4 3 4 2 3 4 5 4 3 2 1 3 5 5 6 6 6 5 7 5 9 9 7 6 6 7 8 7 6 7 10 11 10 9 8 6 7 7 7 7 6 2 3 3 1 4 7 8 8 8 7 7 9 7 7 8 7 6 7 7 7 7 7 7 7 6 8 9 10 11 10 9 5 5 8 11 8
3 5 5 8 9 7 7 10 5 0 4 6 6 7 5 6 6 5 4 3 3 3 4 5 8 9 9 6 9 9 8 9 9 7 7 7 6 7 7 9 9 9 8 7 7 6 5 6 6 7 5 3 3 3 1 4 8 9 8 8 8 7 6 6 6 5 6 6 6 7 7 6 5 6 7 7 6 6 6 6 8 8 4 3 3 5 12
5 6 3 3 3 3 2 1 2 3 3 3 5 7 8 7 5 5 5 4 4 4 5 4 2 3 8 9 8 10 9 8 9 9 8 7 7 7 8 9 8 8 9 9 6 5 5 6 6 8 4 3 3 3 2 4 7 8 8 7 7 7 6 5 5 6 5 5 5 5 6 6 6 6 6 6 5 6 5 7 7 4 6 4 3 5 6
6 4 3 2 1 2 3 2 4 5 5 6 9 7 7 9 7 5 5 3 3 4 4 4 5 5 5 7 7 9 12 11 10 9 8 8 9 8 9 11 10 8 7 6 6 4 5 5 6 7 3 3 4 3 3 5 7 6 7 6 6 6 6 6 6 6 6 6 6 7 6 6 5 6 6 5 5 6 6 6 6 7 6 3 4 5 6
3 2 1 1 2 3 5 5 3 5 4 3 5 7 5 5 8 8 7 5 3 4 4 5 5 6 6 5 5 6 7 9 10 9 8 8 8 7 7 7 9 11 10 8 6 4 5 5 5 4 2 3 3 3 4 6 6 7 7 6 6 8 9 9 6 6 6 6 6 6 6 6 5 6 7 6 6 6 6 6 6 5 5 4 5 4 3
6 3 1 2 2 2 2 2 5 7 8 6 5 7 9 10 11 11 8 7 9 8 8 7 8 8 7 7 8 9 11 10 10 10 9 8 7 5 3 2 5 8 9 8 5 3 4 5 7 2 3 3 3 3 4 5 5 6 6 6 7 6 6 8 6 6 5 6 6 6 6 7 6 6 6 6 6 6 6 7 6 5 4 6 5 4 2
6 1 3 4 2 2 5 5 7 8 8 11 12 8 6 5 3 5 7 6 6 6 7 7 6 7 9 9 11 13 13 11 9 8 9 8 6 5 5 6 9 12 10 7 6 4 4 6 4 3 3 4 4 5 4 4 5 6 6 6 6 6 6 6 6 7 6 6 5 5 5 6 6 6 6 6 6 6 6 6 6 5 5 6 5 2 2
4 3 4 5 4 8 12 12 8 7 5 4 2 2 5 5 5 5 6 5 5 6 8 7 8 10 9 13 12 11 11 12 9 7 9 7 4 5 5 6 7 8 7 6 6 6 5 4 4 4 5 5 5 5 5 5 5 6 6 7 7 6 6 6 6 6 6 6 6 6 6 7 6 6 7 7 6 6 7 6 7 6 6 4 2 1 5
6 10 5 5 8 8 7 3 6 7 6 7 5 4 3 3 4 5 5 8 8 6 5 9 9 8 8 9 7 6 9 12 14 15 10 6 6 5 6 8 8 9 10 7 6 5 4 3 5 5 6 5 6 5 5 5 5 6 5 7 7 6 6 6 6 5 7 6 5 6 5 6 6 5 6 6 6 6 6 6 6 6 6 5 2 0 2
10 10 9 8 8 9 9 9 4 2 6 4 3 3 3 3 3 5 6 5 5 7 8 9 9 9 7 7 8 9 5 7 12 9 8 7 6 7 8 9 13 14 13 9 5 5 5 4 5 5 5 5 5 5 4 4 5 6 6 7 7 7 7 6 6 6 6 6 6 6 6 6 6 7 6 6 6 6 6 5 5 4 5 4 3 2 1
6 7 7 7 7 8 9 8 9 7 1 1 2 3 4 3 4 4 5 6 6 7 8 9 9 9 8 7 7 8 8 8 6 7 6 5 6 7 9 10 9 11 9 8 2 4 3 4 6 7 6 5 5 4 4 5 6 6 6 7 7 7 7 7 6 6 6 5 6 6 7 7 6 5 6 5 6 6 5 6 6 4 3 2 1 1 3
7 7 8 8 8 8 8 8 8 7 2 7 7 6 4 4 4 5 6 5 6 7 7 7 7 9 11 11 11 10 10 9 8 8 7 7 8 11 8 8 6 5 6 4 1 3 3 4 6 6 5 5 4 4 5 6 6 6 6 6 6 6 7 7 7 6 6 5 6 6 6 6 6 6 4 5 5 4 5 5 5 4 3 2 1 2 3
10 9 8 8 7 7 6 8 9 9 10 6 5 6 4 5 5 7 7 6 4 5 9 9 10 11 11 13 11 8 9 9 10 9 9 8 6 9 8 5 3 2 2 2 4 3 3 4 4 5 5 5 5 5 5 7 6 6 6 6 6 6 6 6 6 7 7 7 6 5 6 6 6 6 6 5 4 4 5 5 3 4 3 3 3 4 3
9 9 9 9 8 9 8 7 9 9 8 7 6 5 3 4 6 8 8 7 4 4 6 8 10 10 10 12 11 9 6 6 7 8 10 9 11 12 8 6 4 4 3 4 3 3 4 5 5 5 4 3 4 4 5 5 5 6 5 6 6 6 6 6 6 6 5 5 6 6 6 6 4 5 5 4 3 4 4 3 2 3 2 3 4 4 4
9 9 9 7 6 7 7 7 8 7 10 10 8 6 6 4 4 8 8 7 4 5 5 5 9 10 9 9 10 10 8 6 7 8 6 8 9 7 8 5 1 1 2 2 3 4 5 4 4 5 4 4 4 4 4 4 5 5 5 5 5 6 6 6 6 6 6 6 6 6 6 6 4 4 5 2 2 2 2 2 3 3 5 6 6 4 4
10 10 8 7 6 6 6 6 5 7 8 9 10 8 8 7 7 8 7 6 7 7 9 9 10 12 11 11 11 10 9 7 7 7 6 5 4 7 9 3 2 1 2 5 4 5 4 4 4 5 4 4 4 4 4 5 5 5 5 5 5 5 6 6 6 4 5 5 5 5 5 5 6 4 2 3 2 3 3 3 3 4 5 5 5 5 5
10 9 8 6 6 5 5 5 6 5 7 9 8 8 8 6 7 8 8 9 8 9 11 11 11 12 12 12 12 12 9 6 8 7 8 7 4 2 2 7 4 2 5 5 4 4 5 3 4 3 4 5 5 6 5 5 4 5 5 5 6 6 5 5 5 4 5 5 4 4 5 5 4 5 4 4 5 4 5 5 6 6 5 6 5 5 4
8 7 6 6 5 5 4 4 4 5 8 8 7 7 9 9 8 7 8 10 10 8 10 10 11 10 9 8 10 9 7 6 6 5 8 7 8 9 7 5 3 5 5 6 4 5 5 4 4 6 7 8 7 6 6 4 4 4 5 5 5 5 5 5 4 4 4 4 5 5 5 5 3 4 3 5 4 4 4 5 5 5 5 5 4 5 5
7 6 6 5 5 5 4 5 6 7 5 5 7 10 10 10 10 10 9 9 10 8 8 8 8 8 7 7 8 7 6 5 3 2 7 7 7 2 1 3 4 4 5 5 5 5 4 4 5 6 6 7 6 6 4 4 4 4 4 4 4 4 4 4 4 3 3 2 2 3 4 3 4 4 4 5 5 5 5 6 6 5 6 5 5 5 5
5 5 5 5 5 5 3 3 3 3 4 7 10 11 11 9 9 9 10 10 10 9 9 8 9 9 9 8 8 7 7 7 6 7 3 0 3 6 5 4 4 4 6 6 4 5 3 6 7 7 7 6 6 5 4 3 4 3 3 4 3 5 3 3 2 2 2 3 3 3 3 3 3 4 5 5 5 4 5 6 6 4 6 5 5 5 5
4 5 6 6 6 6 6 5 6 7 8 9 10 9 8 9 8 8 9 10 10 10 9 9 9 8 6 5 4 7 9 11 9 7 6 6 8 7 5 5 6 6 6 6 5 3 4 4 5 6 6 6 4 4 3 2 3 3 3 3 3 2 3 3 2 3 2 2 3 4 4 4 4 4 5 4 5 5 5 5 6 5 5 6 5 6 6
5 6 7 7 6 5 5 6 8 10 11 10 8 7 6 6 8 9 8 8 8 9 9 8 7 7 7 6 4 5 4 4 9 6 6 7 6 6 5 3 4 6 6 5 5 4 5 6 6 5 5 4 5 3 2 3 2 2 3 1 2 2 2 2 1 2 2 1 2 2 3 4 4 4 4 5 6 6 6 5 6 6 5 5 6 5 5
7 7 7 7 8 8 8 8 9 9 8 5 6 8 8 7 8 9 8 9 10 10 9 9 10 9 8 7 8 5 5 3 3 6 3 3 4 4 4 5 6 5 5 4 3 3 4 4 4 4 4 3 2 2 2 2 2 2 2 2 2 2 2 2 3 2 2 3 3 3 4 5 4 4 5 6 6 6 6 6 6 6 6 5 5 6 5
6 6 6 6 7 7 6 6 8 7 6 6 6 6 5 7 9 8 7 7 8 6 7 7 7 6 7 7 7 8 8 9 10 8 6 5 5 4 4 4 3 4 4 3 3 2 2 3 3 2 1 1 1 2 1 1 1 1 2 3 1 1 3 4 3 4 3 4 4 4 4 5 5 5 7 5 6 6 6 6 6 7 9 7 7 6 6
5 7 6 7 7 8 9 8 7 6 6 7 7 6 7 8 7 6 6 6 6 7 8 7 7 6 6 6 6 6 7 7 7 7 6 5 5 5 5 4 4 3 3 3 2 2 1 1 1 1 1 0 1 1 1 1 1 1 2 2 2 2 3 4 4 3 4 5 4 5 5 5 5 6 6 6 6 6 6 7 7 6 6 6 7 7 7
8 7 7 7 6 8 8 8 8 7 7 6 6 6 7 7 6 7 7 8 7 6 5 6 7 6 5 5 6 6 6 5 4 5 5 4 4 4 3 4 3 3 2 2 2 2 1 1 2 2 2 1 1 1 1 2 2 2 3 3 3 3 4 5 5 4 4 5 5 5 6 6 6 6 6 6 6 7 7 7 7 6 6 7 7 7 7
Wind_Direction
242 241 245 172 194 196 199 206 204 197 192 183 194 213 225 217 210 230 238 230 230 246 248 237 227 207 219 225 231 227 250 293 254 249 257 258 253 249 218 230 230 234 236 232 220 215 221 218 222 221 217 217 213 214 208 195 190 196 180 185 192 191 192 199 199 187 182 180 173 172 175 177 175 173 159 160 157 157 170 173 174 171 168 168 162 164 166
242 248 250 200 195 225 231 215 211 201 184 192 199 212 218 220 226 231 244 252 242 239 247 233 230 209 222 226 232 28 228 241 242 241 244 248 261 263 262 262 250 231 235 237 226 214 221 219 223 220 216 214 209 207 205 193 192 190 173 191 191 193 199 201 189 178 178 177 174 169 174 180 177 170 164 161 164 166 174 176 174 170 166 167 172 169 163
256 257 258 247 210 220 235 253 259 219 202 202 206 215 222 226 239 241 245 250 259 254 234 222 228 212 226 275 279 242 239 249 246 247 252 253 252 257 263 265 266 269 261 227 219 223 230 222 220 218 217 211 204 208 203 194 195 184 180 190 194 196 201 192 181 174 174 179 173 175 177 173 169 166 163 163 164 166 168 167 167 166 162 165 173 176 173
253 254 253 252 159 219 247 257 226 213 210 216 218 221 220 212 222 229 237 252 256 262 115 212 202 201 209 224 232 242 249 244 244 243 242 243 248 254 258 261 266 278 286 271 241 231 231 226 218 215 214 202 196 210 196 197 190 175 186 192 195 199 195 181 179 176 175 172 176 177 169 171 166 163 157 158 162 164 163 163 168 165 169 174 175 172 170
240 248 246 267 113 267 262 239 231 220 219 220 225 235 235 224 215 220 219 236 242 233 172 182 217 194 213 217 218 228 242 240 232 236 238 240 249 252 252 258 269 266 257 252 247 243 235 227 219 218 199 189 207 203 192 195 169 181 190 191 193 193 187 179 179 174 170 171 174 171 172 163 158 156 159 164 167 171 179 175 162 171 177 169 171 166 168
238 248 247 101 239 236 235 232 231 220 222 210 212 226 225 228 208 218 221 240 250 249 207 222 217 208 212 213 219 214 224 235 240 243 237 233 237 246 255 257 253 258 257 256 249 242 240 233 217 205 189 199 204 189 184 170 178 184 183 188 187 187 177 178 172 170 167 165 167 165 160 159 161 168 170 176 178 176 166 164 172 173 171 170 166 170 172
232 239 99 216 232 241 236 249 260 245 233 213 216 231 233 233 223 235 258 260 257 247 234 232 232 205 225 221 222 231 240 225 226 234 237 228 230 237 243 250 249 245 251 263 259 257 247 233 212 181 195 195 170 167 170 172 177 173 180 177 181 178 175 171 165 165 160 160 160 159 163 166 169 168 169 167 167 168 169 170 172 176 175 174 175 172 170
233 161 200 233 233 249 348 242 235 214 205 219 221 242 246 238 225 212 229 240 245 251 246 236 216 197 236 269 260 242 240 217 219 226 233 231 218 222 222 229 243 245 240 235 240 250 250 191 194 188 191 168 162 168 156 164 164 167 166 172 174 167 168 166 165 161 156 157 156 158 161 159 158 161 165 168 167 160 157 156 139 126 125 145 161 164 164
226 204 221 235 309 317 284 277 235 198 199 187 181 227 245 233 222 212 224 236 244 246 247 241 235 192 263 281 264 203 219 231 227 219 228 222 222 222 232 212 236 235 241 248 254 264 233 181 168 174 145 145 143 138 149 152 152 157 161 168 170 167 166 164 163 161 158 154 155 156 156 155 161 164 163 158 150 143 145 148 150 155 160 164 157 159 163
203 223 237 240 232 241 250 241 249 109 207 179 181 203 262 260 212 212 216 232 240 242 243 233 226 113 294 267 267 215 204 221 224 224 229 246 229 217 230 258 267 267 262 250 249 199 145 121 139 138 137 136 133 137 141 144 148 156 163 172 167 164 166 164 159 157 155 152 153 157 158 165 167 164 155 145 152 156 158 160 169 175 167 157 158 160 162
187 214 230 225 227 232 234 255 241 166 158 143 140 160 242 254 237 213 211 228 238 238 224 234 151 164 230 249 255 201 202 201 195 193 198 211 227 231 218 215 232 254 281 157 125 107 117 119 133 133 132 131 132 136 145 150 152 158 170 165 162 163 159 154 152 151 152 154 157 160 164 163 158 155 158 154 143 143 146 147 147 134 144 145 144 152 161
214 218 228 229 209 233 236 246 186 192 141 127 115 204 244 249 250 188 205 217 230 228 224 216 155 190 231 244 253 165 179 166 174 165 167 183 201 216 240 252 233 199 158 109 96 113 126 139 136 133 131 129 132 139 144 145 152 166 171 165 157 144 145 149 149 152 155 157 158 157 154 145 145 145 135 131 144 146 145 142 140 143 142 144 149 155 148
225 224 239 260 255 253 255 235 182 148 151 133 183 212 235 245 119 183 178 197 215 224 222 188 198 217 219 235 159 132 128 119 152 205 173 187 181 181 161 150 125 108 94 108 123 128 131 131 130 128 125 122 129 137 144 150 172 173 152 138 142 143 143 145 149 153 155 157 154 152 147 145 138 136 142 142 141 144 143 139 138 141 147 144 142 140 146
223 222 227 233 256 223 201 247 157 159 121 206 214 232 193 115 139 162 184 189 211 215 217 206 210 228 216 102 141 132 168 167 167 159 159 123 95 71 104 126 125 114 103 100 96 86 96 120 122 124 120 120 131 140 148 166 162 136 135 136 134 136 142 145 146 146 144 137 136 134 131 132 134 134 132 135 140 140 138 140 142 140 138 139 143 151 151
228 227 236 233 233 178 202 150 85 241 202 227 219 165 241 175 187 176 193 196 210 208 220 212 214 206 141 166 168 172 161 157 162 167 154 152 145 143 129 110 115 124 111 103 100 106 99 103 112 117 118 123 135 145 157 166 143 137 133 133 134 136 139 141 145 143 141 138 134 133 135 137 134 132 133 130 130 132 133 136 141 145 153 152 156 169 163
214 208 217 221 219 218 181 151 205 180 220 210 162 155 228 231 186 183 192 214 215 202 205 210 203 177 149 159 165 135 146 115 112 108 117 106 108 93 78 108 121 111 105 103 99 90 83 87 97 116 125 124 132 135 146 130 125 120 124 126 127 129 132 134 131 132 136 133 134 137 138 138 137 138 141 140 140 145 143 146 148 153 153 150 155 170 187
205 219 230 234 316 174 178 202 224 210 215 179 189 181 200 182 228 200 194 214 217 201 198 176 158 154 196 170 173 165 177 165 150 154 153 154 148 139 128 121 112 113 115 115 107 91 81 85 87 101 124 127 125 124 138 123 131 127 126 125 124 125 126 129 126 123 118 119 124 128 133 136 134 136 134 137 136 137 137 139 149 156 161 163 175 184 181
296 286 179 329 333 333 293 301 27 356 319 347 18 274 278 253 210 181 192 212 190 180 171 143 195 185 169 150 168 135 135 145 142 118 115 106 115 113 111 108 114 121 112 106 106 103 75 63 78 87 95 124 128 143 126 119 118 122 120 118 116 119 118 117 121 122 115 109 112 117 120 119 127 137 143 147 142 144 146 150 156 158 158 167 178 180 193
252 252 217 225 235 264 279 285 316 346 319 306 345 311 288 305 271 209 221 195 182 178 173 175 169 166 164 154 159 149 145 148 158 156 146 150 148 145 133 143 135 127 123 119 117 111 98 56 78 77 87 74 110 127 126 128 124 122 118 115 116 116 119 118 119 121 120 123 116 110 109 103 110 118 128 134 135 143 154 157 164 168 166 172 174 175 189
256 284 313 309 279 234 237 224 286 316 332 340 353 294 298 309 311 299 259 147 151 155 171 177 149 163 169 155 161 159 163 162 159 159 152 147 136 129 135 143 140 126 127 130 126 118 110 96 88 89 85 82 82 111 124 128 129 124 124 131 132 131 130 130 130 131 126 125 123 114 112 118 120 115 118 137 146 162 172 170 165 172 167 172 175 182 180
282 291 282 265 281 295 272 185 178 192 225 287 308 337 348 344 342 344 8 360 201 181 172 140 135 141 183 167 159 155 157 156 158 158 154 146 141 141 139 146 142 138 135 126 123 118 116 112 104 97 90 73 53 91 127 134 132 126 124 121 120 120 123 120 120 120 127 127 125 120 107 83 61 83 142 150 140 102 15 121 163 163 176 174 174 172 161
263 257 257 86 318 293 300 272 214 200 193 180 227 279 342 339 350 328 353 17 18 16 27 112 149 153 158 158 152 157 157 160 153 146 142 140 133 130 123 115 116 109 114 125 126 120 116 118 113 109 100 83 47 27 103 137 131 128 128 123 119 122 124 123 126 124 122 122 122 124 123 119 108 82 82 107 130 130 145 139 133 140 141 167 177 158 151
256 248 235 213 215 255 251 247 225 208 179 161 171 207 212 211 208 220 138 82 21 355 349 337 119 127 148 152 142 135 146 145 141 138 140 141 142 135 136 126 123 124 125 127 120 119 123 124 115 113 103 85 69 30 66 139 133 133 131 123 122 126 129 134 141 136 132 129 131 124 126 123 118 114 101 80 93 107 118 127 126 118 114 123 137 144 138
248 263 267 202 200 232 264 249 214 214 202 180 202 207 191 193 182 194 191 189 167 187 276 281 285 156 147 154 152 146 126 131 131 136 129 126 134 135 135 138 137 133 136 143 142 134 130 125 119 113 102 69 54 18 61 133 133 134 137 136 139 144 137 137 133 134 132 133 132 129 126 129 131 129 118 116 94 94 102 108 112 114 117 120 123 127 121
240 235 204 204 220 255 297 303 291 258 203 195 204 215 200 186 188 176 190 210 231 169 179 204 220 178 163 151 151 155 147 143 145 140 134 130 134 141 140 138 147 144 144 128 102 107 113 125 118 117 106 76 20 23 37 127 135 132 135 132 132 134 137 134 131 132 136 139 143 141 145 143 144 139 135 129 124 121 100 102 102 113 123 123 127 136 138
236 198 128 93 48 277 303 334 297 249 219 201 222 232 123 165 169 159 190 208 184 181 197 167 155 160 166 153 141 134 124 135 136 134 135 141 136 136 150 152 139 117 110 114 115 111 120 125 125 118 106 69 17 1 356 112 122 126 127 130 137 146 151 150 142 146 146 150 148 152 150 145 145 143 139 138 135 130 128 126 71 58 57 75 93 102 107
21 160 124 323 298 279 221 202 237 268 196 194 197 145 125 128 137 127 89 71 98 157 157 157 143 145 122 121 123 126 138 129 123 130 136 138 146 140 126 107 105 112 123 115 105 121 128 125 117 109 97 40 350 332 25 121 118 115 118 121 118 111 125 136 143 144 145 144 143 141 143 145 145 140 141 143 141 145 149 142 134 122 126 45 56 78 81
185 199 180 207 234 235 235 232 232 249 176 171 151 137 141 122 122 133 133 126 106 97 101 132 142 136 127 134 132 120 118 136 139 133 129 126 101 99 112 118 117 125 125 125 120 122 118 116 112 106 79 5 353 338 51 127 119 120 122 124 122 125 124 119 121 124 129 132 138 140 142 138 132 128 134 140 140 137 120 118 127 133 110 77 341 39 64
227 213 213 210 243 273 311 46 84 125 130 116 119 126 136 138 158 156 177 174 153 138 126 125 108 128 142 147 146 142 145 142 142 141 125 110 109 105 107 116 108 101 92 100 100 105 118 116 118 107 78 5 358 2 55 111 117 123 125 126 125 124 122 120 117 113 109 104 103 111 112 115 119 116 112 110 109 111 116 123 127 118 125 128 89 69 55
219 206 189 240 268 199 154 167 183 185 176 162 148 162 168 152 153 187 176 166 171 162 158 133 127 133 140 143 156 158 160 158 141 113 117 118 100 98 106 113 100 86 91 102 119 126 122 126 119 110 81 358 1 24 62 88 94 94 97 97 102 115 122 120 117 113 112 110 108 104 105 107 105 109 112 111 116 121 124 130 132 134 130 131 111 122 112
181 140 195 314 258 229 216 206 187 191 180 178 166 157 179 179 175 170 178 167 160 151 157 160 146 137 140 133 111 91 91 102 113 117 113 101 96 118 138 148 148 162 162 154 140 128 122 111 99 85 6 354 11 42 75 96 103 100 92 91 91 99 108 111 109 112 115 116 114 111 107 104 111 116 120 119 114 109 111 115 115 111 111 110 115 114 130
136 139 149 285 321 249 234 175 171 182 186 182 159 186 185 178 187 189 173 175 187 172 160 152 159 159 134 118 113 111 104 101 102 101 90 92 90 74 33 19 70 82 95 109 107 107 115 111 93 30 354 12 34 48 74 102 108 103 107 110 109 106 102 103 101 103 105 109 113 111 120 122 113 111 113 118 124 126 129 123 121 125 132 128 128 142 190
133 135 264 253 263 289 264 237 196 203 185 189 204 200 191 202 183 169 180 165 137 155 164 163 146 124 119 113 110 106 99 96 84 99 94 89 58 55 38 45 69 86 85 69 86 74 83 96 87 26 34 32 46 52 62 75 90 104 106 106 102 100 97 99 109 108 99 98 100 112 111 105 118 113 116 118 117 120 118 120 124 128 128 137 146 198 212
288 272 317 295 235 214 211 220 215 214 217 228 220 184 181 193 182 156 150 154 150 156 173 160 132 113 119 120 118 122 127 122 125 144 132 110 90 76 72 80 81 86 84 78 69 67 54 60 55 53 37 50 50 54 63 76 90 96 102 105 107 106 102 102 103 106 107 99 103 95 98 106 102 116 120 119 122 122 126 128 133 133 134 140 172 224 288
302 282 278 307 342 338 329 280 206 206 198 202 235 240 213 176 169 162 156 159 171 165 125 119 130 119 112 116 123 147 172 162 142 120 131 119 119 115 118 111 104 92 80 60 51 57 51 63 67 74 69 60 62 58 70 82 97 102 99 101 100 101 103 99 95 100 111 116 113 109 103 102 102 103 111 118 124 125 123 129 134 138 137 143 153 23 9
354 341 345 348 347 342 328 329 324 249 201 217 210 195 175 161 135 137 150 140 99 110 122 127 131 128 108 126 139 152 142 107 110 111 112 114 122 127 124 112 108 95 93 79 43 33 23 59 69 80 77 75 70 62 73 93 91 100 106 104 103 99 93 91 97 92 91 106 100 100 106 109 109 110 115 116 115 118 125 126 133 131 139 144 149 116 71
3 348 323 326 336 340 337 334 334 327 319 125 106 126 130 111 121 100 96 108 115 119 127 128 129 135 128 99 70 67 68 81 95 110 110 112 127 122 116 97 84 105 115 107 30 33 23 63 77 80 82 81 80 80 74 80 101 99 101 101 105 108 109 104 96 100 94 93 108 111 110 103 97 100 108 119 119 123 122 128 124 121 131 137 142 139 137
341 348 340 338 338 340 338 335 334 338 30 73 36 47 77 102 101 104 102 99 110 121 122 119 116 108 91 82 65 71 74 80 98 104 106 109 126 110 94 97 102 99 106 130 112 69 55 73 80 85 82 84 86 91 88 83 92 93 100 103 110 114 111 114 109 108 110 111 110 110 114 121 124 115 103 100 114 119 118 121 123 137 146 159 161 173 181
349 352 349 346 352 0 349 353 7 18 20 55 72 60 40 73 90 95 92 85 83 109 114 115 119 113 100 95 94 80 72 90 102 115 113 99 83 86 79 64 36 40 112 119 97 87 74 77 86 90 87 92 94 88 82 73 77 91 99 107 106 109 112 117 119 122 118 121 113 115 113 112 118 122 120 120 113 108 113 126 138 146 164 185 183 206 207
345 349 342 349 5 0 2 12 21 20 15 19 36 43 14 73 87 94 94 85 56 82 117 132 128 124 119 110 106 106 103 98 106 106 107 106 102 98 92 59 24 18 70 97 94 95 96 97 95 92 93 83 89 88 82 73 88 99 104 104 107 107 111 121 120 120 123 121 117 114 115 117 118 117 124 123 117 120 128 140 143 161 184 202 212 219 214
342 342 341 347 358 11 7 14 23 11 14 16 24 21 20 47 87 92 86 92 81 79 82 96 112 105 107 110 110 110 105 96 93 104 123 117 103 105 108 115 341 5 49 90 102 100 91 96 104 96 90 85 79 88 100 72 85 97 97 102 108 115 117 114 118 126 136 135 134 134 138 132 119 116 122 124 141 144 156 170 188 201 200 209 224 220 221
341 341 338 353 8 12 359 349 21 26 12 13 4 13 31 42 67 85 79 78 77 71 78 70 85 109 113 110 108 103 95 90 85 61 52 77 105 123 112 136 176 168 128 100 87 87 85 83 81 88 91 89 89 90 100 96 90 93 96 97 103 105 110 111 112 117 112 112 117 123 123 126 132 138 136 144 159 183 191 203 216 227 229 225 227 226 217
340 337 341 349 9 11 14 11 29 27 36 23 12 16 36 48 67 73 71 68 75 87 90 91 96 102 109 115 114 105 102 102 95 95 78 59 60 349 122 138 147 145 114 109 103 90 87 86 90 91 106 108 113 111 92 92 99 97 99 103 101 101 101 110 120 124 123 119 121 127 132 138 143 152 164 181 199 202 202 204 214 224 221 221 226 229 229
334 334 342 353 7 4 358 4 26 37 53 33 11 18 33 42 38 49 72 86 80 77 95 104 103 104 106 112 110 109 110 108 110 108 98 85 65 45 47 97 130 118 111 106 101 98 95 99 101 110 111 109 108 101 98 99 98 100 98 100 103 107 113 110 115 124 122 132 141 154 160 159 164 178 179 199 212 219 219 222 230 229 232 229 232 231 239
342 344 358 16 12 25 24 32 40 58 68 62 45 40 36 37 36 31 38 66 74 64 75 86 91 96 99 92 88 90 86 71 47 50 106 111 99 107 85 85 104 107 104 103 100 100 104 103 108 107 104 101 91 91 92 93 94 99 101 102 104 108 114 124 135 136 142 145 158 162 165 181 188 191 203 213 212 213 221 218 228 222 220 229 227 229 234
348 356 9 24 35 31 29 43 55 66 69 75 66 49 37 35 43 43 43 51 64 62 57 58 74 79 86 91 93 97 94 77 73 55 31 311 139 148 133 119 108 104 102 97 97 98 102 104 100 97 92 89 87 84 82 92 92 95 102 101 110 120 123 133 139 147 160 171 175 175 190 198 196 213 211 215 223 226 236 227 236 236 223 230 232 233 236
354 21 22 26 29 30 33 44 58 65 58 55 55 51 35 39 50 57 56 53 64 68 65 55 52 47 47 28 57 100 97 92 59 38 28 53 74 83 108 100 96 95 92 93 97 94 95 92 94 94 94 86 73 82 92 88 93 93 96 109 122 131 142 151 165 176 187 186 191 195 205 202 211 223 224 231 236 237 238 237 242 246 238 232 239 238 242
19 38 40 46 49 48 49 53 55 55 53 58 66 70 53 53 62 63 62 61 63 65 63 59 57 52 45 48 43 15 19 75 89 58 37 53 52 70 73 75 90 98 95 90 84 84 92 97 104 108 107 104 88 51 61 75 76 94 111 138 152 158 179 177 182 194 205 210 218 215 234 240 235 227 228 226 239 238 235 232 242 249 245 236 239 239 238
27 38 44 46 47 51 52 55 58 60 59 41 55 69 62 64 66 58 51 53 57 58 58 55 55 51 50 42 38 38 63 4 66 127 121 80 76 77 76 85 85 80 80 84 78 54 77 98 108 121 120 110 98 95 95 115 115 134 160 179 204 202 188 205 221 202 198 222 222 222 232 234 238 228 235 237 239 241 238 239 241 238 245 245 246 245 243
42 46 47 41 39 32 30 45 54 51 49 42 48 44 48 66 68 54 51 49 58 62 60 53 44 43 44 34 42 48 40 53 64 75 87 83 78 77 79 74 71 64 70 74 73 66 44 54 64 83 87 53 62 87 85 112 187 186 193 214 216 224 222 219 231 215 213 227 234 232 238 237 240 237 237 238 242 241 240 241 242 245 246 245 246 247 245
31 51 51 46 50 47 40 43 53 56 70 67 68 60 56 55 59 49 38 46 58 60 64 58 51 39 30 43 47 40 49 63 68 72 77 74 71 72 70 80 73 68 64 66 56 50 32 20 23 15 36 39 111 142 182 199 213 222 226 222 235 233 242 238 231 237 238 227 232 234 239 242 238 238 240 239 241 243 243 242 244 242 240 241 242 243 244
53 55 58 55 53 54 52 46 41 40 38 39 55 60 62 66 68 62 48 26 39 43 47 71 60 29 24 35 37 43 44 41 50 62 61 60 62 68 64 67 71 60 45 45 52 45 35 36 360 360 343 343 311 293 279 251 238 246 247 242 244 246 241 240 238 238 243 238 233 240 242 238 234 238 244 241 240 241 244 242 243 243 241 242 241 241 244